Location: Kosice
(0.0000°N, 21.2500°E)
Time: 06:01:33
(UTC+01:00)

USA 267 - Pass Details

Date: 24 January 2021
Orbit: 1099 x 1108 km, 123.0° (Epoch: 03 March)

Event Time Altitude Azimuth Distance (km) Brightness Sun altitude
Rises 17:57:48 0° 25° (NNE) 3,903 5.7 -2.5°
Reaches altitude 10° 18:00:21 10° 20° (NNE) 2,948 5.2 -3.1°
Maximum altitude 18:06:36 50° 307° (NW) 1,369 4.1 -4.6°
Drops below altitude 10° 18:12:53 10° 233° (SW) 2,963 7.0 -6.1°
Sets 18:15:27 0° 228° (SW) 3,923 7.6 -6.7°
